Location: Bagong Pook
(14.2541°N, 120.8791°E)
Time: 04:24:22
(UTC+00:00)

Cosmos 2369 Rocket - Visible Passes

Search period start: 21 April 2026 00:00
Search period end: 01 May 2026 00:00
Orbit: 829 x 850 km, 71.0° (Epoch: 20 April)

Date Brightness Start Highest point End Pass type
(mag) Time Alt. Az. Time Alt. Az. Time Alt. Az.
24 Apr 4.8 12:57:42 10° N 12:57:48 10° N 12:57:48 10° N visible
25 Apr 4.5 12:42:02 10° N 12:42:49 14° N 12:42:49 14° N visible
26 Apr 4.1 12:26:22 10° N 12:27:55 18° NNE 12:27:55 18° NNE visible
27 Apr 3.8 12:10:44 10° N 12:13:04 22° NNE 12:13:04 22° NNE visible
28 Apr 3.4 11:55:06 10° N 11:58:16 26° NE 11:58:16 26° NE visible
28 Apr 5.0 13:39:48 10° WNW 13:40:05 11° WNW 13:40:05 11° WNW visible
29 Apr 3.2 11:39:28 10° NNE 11:43:33 28° ENE 11:43:33 28° ENE visible
29 Apr 4.7 13:23:49 10° NW 13:25:21 16° WNW 13:25:21 16° WNW visible
30 Apr 3.2 11:23:52 10° NNE 11:28:28 26° ENE 11:28:53 26° ENE visible
30 Apr 4.3 13:07:53 10° NW 13:10:42 21° W 13:10:42 21° W visible
